Weather History for Detroit Metro, MI

Change the Weather History Date:

Thursday, January 31, 2013

  Actual Average Record
Temperature  
Mean Temperature 26 °F 26 °F  
Max Temperature 34 °F 32 °F 60 °F (1989)
Min Temperature 17 °F 19 °F -7 °F (1920)
Degree Days  
Heating Degree Days 39 39  
Month to date heating degree days 1116 1226  
Since 1 July heating degree days 3235 3520  
Cooling Degree Days 0 0  
Month to date cooling degree days 0 0  
Year to date cooling degree days 0 0  
Moisture  
Dew Point 15 °F    
Average Humidity 67    
Maximum Humidity 81    
Minimum Humidity 53    
Precipitation  
Precipitation 0.09 in 0.06 in 1.48 in (1878)
Month to date precipitation 3.45 1.96  
Year to date precipitation 3.45 1.96  
Snow  
Snow 1.80 in 0.40 in 10.00 in (1982)
Month to date snowfall 10.0 12.5  
Since 1 July snowfall 21.0 23.7  
Snow Depth T in    
Sea Level Pressure  
Sea Level Pressure 29.65 in    
Wind  
Wind Speed 18 mph (WSW)    
Max Wind Speed 35 mph    
Max Gust Speed 47 mph    
Visibility 5 miles    
Events Snow    
T = Trace of Precipitation, MM = Missing Value Source: NWS Daily Summary

Daily Weather History Graph

Daily Weather History Graph

Search for Another Location

Airport:

Trip Planner

Search our weather history database for the weather conditions in past years. The results will help you decide how hot, cold, wet, or windy it might be!

Date:

Astronomy

Jan. 31, 2013 Rise Set
Actual Time 7:47 AM EST 5:46 PM EST
Civil Twilight 7:17 AM EST 6:16 PM EST
Nautical Twilight 6:44 AM EST 6:50 PM EST
Astronomical Twilight 6:11 AM EST 7:23 PM EST
Moon 10:55 PM EST (1/31) 9:40 AM EST (1/31)
Length of Visible Light 10h 58m
Length of Day
9h 59m
Waning Gibbous, 80% of the Moon is Illuminated
Jan 31
Waning Gibbous
Feb 3
Last Quarter
Feb 10
New
Feb 17
First Quarter
Feb 25
Full

Hourly Weather History & Observations

Time (EST) Temp. Windchill Dew Point Humidity Pressure Visibility Wind Dir Wind Speed Gust Speed Precip Events Conditions
12:46 AM 32.0 °F 17.4 °F 19.4 °F 60% 29.29 in 10.0 mi West 31.1 mph 39.1 mph 0.00 in   Mostly Cloudy
12:53 AM 30.9 °F 16.2 °F 19.0 °F 61% 29.31 in 10.0 mi West 29.9 mph 40.3 mph 0.00 in   Mostly Cloudy
1:53 AM 30.0 °F 19.1 °F 16.0 °F 56% 29.36 in 10.0 mi West 15.0 mph 34.5 mph N/A   Overcast
2:53 AM 28.9 °F 15.1 °F 17.1 °F 61% 29.41 in 8.0 mi West 23.0 mph 36.8 mph 0.00 in Snow Light Snow
3:53 AM 28.9 °F 14.8 °F 16.0 °F 58% 29.43 in 7.0 mi West 24.2 mph 34.5 mph 0.00 in Snow Light Snow
4:53 AM 27.0 °F 12.5 °F 12.9 °F 56% 29.46 in 8.0 mi WSW 23.0 mph 44.9 mph 0.00 in Snow Light Snow
5:28 AM 26.6 °F 11.4 °F 12.2 °F 55% 29.48 in 9.0 mi West 25.3 mph 32.2 mph 0.00 in Snow Light Snow
5:53 AM 26.1 °F 12.7 °F 15.1 °F 63% 29.50 in 7.0 mi West 18.4 mph 27.6 mph 0.00 in Snow Light Snow
6:09 AM 26.6 °F 13.1 °F 15.8 °F 64% 29.50 in 9.0 mi West 19.6 mph 29.9 mph 0.00 in Snow Light Snow
6:39 AM 24.8 °F 12.4 °F 17.6 °F 74% 29.52 in 1.0 mi West 15.0 mph - 0.00 in Snow Light Snow
6:45 AM 24.8 °F 14.0 °F 17.6 °F 74% 29.52 in 1.0 mi WSW 11.5 mph 20.7 mph 0.00 in Snow Light Snow
6:53 AM 25.0 °F 13.6 °F 18.0 °F 75% 29.54 in 1.0 mi WSW 12.7 mph 21.9 mph 0.00 in Snow Light Snow
7:00 AM 24.8 °F 14.0 °F 17.6 °F 74% 29.53 in 0.8 mi WSW 11.5 mph - 0.00 in Snow Light Snow
7:24 AM 23.0 °F 7.2 °F 17.6 °F 80% 29.55 in 1.5 mi West 23.0 mph 33.4 mph 0.00 in Snow Light Snow
7:38 AM 23.0 °F 8.3 °F 17.6 °F 80% 29.55 in 2.5 mi West 19.6 mph - 0.01 in Snow Light Snow
7:47 AM 24.8 °F 11.9 °F 17.6 °F 74% 29.56 in 1.5 mi West 16.1 mph - 0.01 in Snow Light Snow
7:53 AM 24.1 °F 9.0 °F 16.0 °F 71% 29.58 in 1.5 mi West 21.9 mph 34.5 mph 0.01 in Snow Light Snow
8:03 AM 23.0 °F 10.1 °F 17.6 °F 80% 29.57 in 2.0 mi West 15.0 mph - 0.00 in Snow Light Snow
8:24 AM 23.0 °F 9.2 °F 17.6 °F 80% 29.59 in 1.0 mi WSW 17.3 mph - 0.00 in Snow Light Snow
8:35 AM 23.0 °F 10.1 °F 17.6 °F 80% 29.59 in 0.5 mi West 15.0 mph - 0.00 in Snow Light Snow
8:53 AM 23.0 °F 11.1 °F 18.0 °F 81% 29.62 in 2.0 mi WSW 12.7 mph - 0.01 in Snow Light Snow
8:55 AM 23.0 °F 12.4 °F 17.6 °F 80% 29.60 in 5.0 mi WSW 10.4 mph - 0.00 in Snow Light Snow
9:35 AM 24.8 °F 11.1 °F 14.0 °F 64% 29.62 in 10.0 mi WSW 18.4 mph 25.3 mph 0.00 in   Overcast
9:53 AM 24.1 °F 9.8 °F 12.9 °F 62% 29.64 in 10.0 mi WSW 19.6 mph 33.4 mph 0.00 in Snow Light Snow
10:30 AM 24.8 °F 9.0 °F 15.8 °F 69% 29.65 in 1.5 mi WSW 25.3 mph 33.4 mph 0.00 in Snow Light Snow
10:33 AM 23.0 °F 8.3 °F 15.8 °F 74% 29.65 in 0.8 mi SW 19.6 mph 33.4 mph 0.00 in Snow Light Snow
10:43 AM 23.0 °F 8.0 °F 15.8 °F 74% 29.66 in 3.0 mi WSW 20.7 mph 33.4 mph 0.00 in Snow Light Snow
10:53 AM 23.0 °F 8.3 °F 16.0 °F 74% 29.68 in 4.0 mi WSW 19.6 mph 28.8 mph 0.00 in Snow Light Snow
11:35 AM 24.8 °F 9.6 °F 10.4 °F 54% 29.68 in 1.0 mi WSW 23.0 mph 32.2 mph 0.00 in Snow Light Snow
11:51 AM 23.0 °F 10.1 °F 15.8 °F 74% 29.68 in 1.5 mi WSW 15.0 mph 28.8 mph 0.00 in Snow Light Snow
11:53 AM 24.1 °F 11.5 °F 16.0 °F 71% 29.70 in 5.0 mi WSW 15.0 mph 25.3 mph 0.00 in Snow Light Snow
12:53 PM 23.0 °F 7.6 °F 12.9 °F 65% 29.72 in 4.0 mi SW 21.9 mph 29.9 mph 0.00 in Snow Light Snow
1:13 PM 23.0 °F 8.0 °F 12.2 °F 63% 29.69 in 4.0 mi WSW 20.7 mph 32.2 mph 0.00 in Snow Light Snow
1:49 PM 23.0 °F 7.2 °F 12.2 °F 63% 29.70 in 2.5 mi WSW 23.0 mph 31.1 mph 0.00 in Snow Light Snow
1:53 PM 21.9 °F 6.9 °F 14.0 °F 72% 29.72 in 4.0 mi WSW 19.6 mph 31.1 mph 0.00 in Snow Light Snow
2:53 PM 23.0 °F 9.2 °F 14.0 °F 68% 29.74 in 7.0 mi West 17.3 mph 23.0 mph 0.00 in Snow Light Snow
3:14 PM 23.0 °F 10.1 °F 15.8 °F 74% 29.72 in 1.5 mi West 15.0 mph 21.9 mph 0.00 in Snow Light Snow
3:18 PM 23.0 °F 9.2 °F 15.8 °F 74% 29.72 in 4.0 mi WSW 17.3 mph 23.0 mph 0.00 in Snow Light Snow
3:53 PM 21.9 °F 6.2 °F 12.9 °F 68% 29.76 in 4.0 mi SW 21.9 mph 31.1 mph 0.00 in Snow Light Snow
4:06 PM 21.2 °F 8.9 °F 15.8 °F 80% 29.74 in 1.5 mi WSW 12.7 mph 27.6 mph 0.00 in Snow Light Snow
4:14 PM 21.2 °F 8.9 °F 15.8 °F 80% 29.74 in 1.5 mi WSW 12.7 mph - 0.00 in Snow Light Snow
4:36 PM 21.2 °F 6.0 °F 15.8 °F 80% 29.75 in 0.1 mi WSW 19.6 mph 25.3 mph 0.00 in Snow Light Snow
4:53 PM 21.0 °F 5.0 °F 14.0 °F 74% 29.78 in 0.1 mi WSW 21.9 mph 28.8 mph 0.00 in Snow Light Snow
5:00 PM 21.2 °F 5.6 °F 12.2 °F 68% 29.75 in 1.0 mi WSW 20.7 mph 27.6 mph 0.00 in Snow Light Snow
5:11 PM 21.2 °F 7.3 °F 12.2 °F 68% 29.76 in 2.0 mi WSW 16.1 mph - N/A Snow Light Snow
5:19 PM 21.2 °F 6.0 °F 12.2 °F 68% 29.76 in 8.0 mi WSW 19.6 mph 29.9 mph 0.00 in Snow Light Snow
5:53 PM 21.0 °F 6.6 °F 12.0 °F 68% 29.79 in 9.0 mi WSW 17.3 mph 21.9 mph 0.00 in   Overcast
6:53 PM 21.0 °F 7.1 °F 10.0 °F 63% 29.83 in 10.0 mi WSW 16.1 mph 21.9 mph N/A   Overcast
7:53 PM 19.9 °F 6.7 °F 10.9 °F 68% 29.86 in 9.0 mi SW 13.8 mph - 0.00 in Snow Light Snow
8:23 PM 19.4 °F 4.1 °F 10.4 °F 68% 29.84 in 9.0 mi SW 18.4 mph 23.0 mph 0.00 in Snow Light Snow
8:53 PM 19.0 °F 4.5 °F 12.0 °F 74% 29.87 in 3.0 mi SW 16.1 mph - 0.00 in Snow Light Snow
9:53 PM 18.0 °F 4.2 °F 12.0 °F 78% 29.89 in 8.0 mi SW 13.8 mph - 0.00 in Snow Light Snow
10:37 PM 17.6 °F 3.2 °F 12.2 °F 79% 29.87 in 3.0 mi SW 15.0 mph - 0.00 in Snow Light Snow
10:53 PM 18.0 °F 4.8 °F 12.0 °F 78% 29.90 in 2.0 mi SW 12.7 mph - 0.00 in Snow Light Snow
11:53 PM 17.1 °F 4.3 °F 12.0 °F 81% 29.90 in 2.0 mi West 11.5 mph - 0.01 in Snow Light Snow